Home > Weather > Yonkers > Past weeks

Flag for USA Past Weather in Yonkers, New York, USA — Yesterday and Last 2 Weeks

Now
68 °F

Clear.


Feels Like: 68 °F
Forecast: 65 / 86 °F
Wind: 3 mph from Southwest

Location: Teterboro Airport

Current Time: Aug 24, 2016 at 2:32:36 AM

Latest Report: Aug 24, 2016 at 1:51 AM


Visibility: 10 mi

Pressure: 30.26 "Hg

Humidity: 68%

Dew Point: 57 °F

Location of YonkersLocation

Past Weather in Yonkers — Graph

°F

Yonkers Temperature Yesterday

Maximum temperature yesterday: 83 °F (at 3:51 PM)
Minimum temperature yesterday: 58 °F (at 5:51 AM)
Average temperature yesterday: 72 °F

High & Low Weather Summary for the Past Weeks

 TemperatureHumidityPressure
High96 °F (Aug 11, 4:51 PM)91% (Aug 12, 1:51 AM)30.32 "Hg (Aug 12, 1:51 AM)
Low58 °F (Aug 23, 5:51 AM)27% (Aug 9, 1:51 PM)29.74 "Hg (Aug 21, 7:51 PM)
Average81 °F64%30.00 "Hg
* Reported Aug 9 12:51 AM — Aug 24 12:51 AM, Yonkers, Weather by CustomWeather, © 2016

Note: Actual official high and low records may vary slightly from our data, if they occured in-between our weather recording intervals... More about our weather records

Advertising

Yonkers Weather History for the Previous 24 Hours

Scroll right to see more
 ConditionsComfort  
Time TempWeatherWind HumidityBarometerVisibility
12:51 AM
Wed, Aug 24
71 °FClear.3 mph63%30.27 "Hg10 mi
11:51 PM
Tue, Aug 23
71 °FClear.No wind59%30.26 "Hg10 mi
10:51 PM73 °FClear.3 mph55%30.25 "Hg10 mi
9:51 PM73 °FClear.5 mph55%30.25 "Hg10 mi
8:51 PM76 °FClear.5 mph47%30.24 "Hg10 mi
7:51 PM78 °FSunny.8 mph43%30.23 "Hg10 mi
6:51 PM79 °FSunny.7 mph41%30.22 "Hg10 mi
5:51 PM82 °FSunny.6 mph37%30.23 "Hg10 mi
4:51 PM82 °FSunny.8 mph34%30.24 "Hg10 mi
3:51 PM83 °FSunny.3 mph33%30.24 "Hg10 mi
2:51 PM81 °FSunny.7 mph34%30.26 "Hg10 mi
1:51 PM81 °FSunny.N/A34%30.27 "Hg10 mi
12:51 PM79 °FSunny.10 mph38%30.28 "Hg10 mi
11:51 AM78 °FSunny.6 mph36%30.30 "Hg10 mi
10:51 AM76 °FSunny.5 mph40%30.31 "Hg10 mi
9:51 AM73 °FSunny.8 mph46%30.32 "Hg10 mi
8:51 AM69 °FSunny.5 mph53%30.31 "Hg10 mi
7:51 AM64 °FSunny.7 mph63%30.31 "Hg10 mi
6:51 AM60 °FClear.No wind72%30.29 "Hg10 mi
5:51 AM58 °FClear.5 mph78%30.28 "Hg10 mi
4:51 AM60 °FClear.5 mph69%30.26 "Hg10 mi
3:51 AM60 °FClear.No wind72%30.24 "Hg10 mi
2:51 AM62 °FClear.No wind65%30.23 "Hg10 mi
Weather by CustomWeather, © 2016

See weather overviewHow to use our weather pages